Jacksonville, IL

1:48 PM CDT on May 20, 2018 (GMT -0500)
Jacksonville Municipal

Weather History for KIJX - March, 2014

Change the Weather History Date:

Sunday, March 23, 2014

  Actual Average (KSPI) Record (KSPI)
Temperature  
Mean Temperature 29 °F -  
Max Temperature 36 °F 53 °F 86 °F (1910)
Min Temperature 22 °F 32 °F 5 °F (1974)
Degree Days  
Heating Degree Days 36    
Moisture  
Dew Point 13 °F    
Average Humidity 52    
Maximum Humidity 72    
Minimum Humidity 30    
Precipitation  
Precipitation 0.00 in - - ()
Sea Level Pressure  
Sea Level Pressure 30.42 in    
Wind  
Wind Speed 11 mph (NNW)    
Max Wind Speed 17 mph    
Max Gust Speed 23 mph    
Visibility 10 miles    
Events      
Averages and records for this station are not official NWS values.
T = Trace of Precipitation, MM = Missing Value Source: NWS Daily Summary

Daily Weather History Graph

Daily Weather History Graph

Search for Another Location

Airport or City:

Astronomy

Mar. 23, 2014 Rise Set
Actual Time 6:59 AM CDT 7:16 PM CDT
Civil Twilight 6:32 AM CDT 7:43 PM CDT
Nautical Twilight 6:00 AM CDT 8:14 PM CDT
Astronomical Twilight 5:28 AM CDT 8:47 PM CDT
Moon 1:32 AM CDT (3/23) 11:41 AM CDT (3/23)
Length of Visible Light 13h 10m
Length of Day
12h 16m
Waning Gibbous, 54% of the Moon is Illuminated
Mar 23
Waning Gibbous
Mar 23
Last Quarter
Mar 30
New
Apr 7
First Quarter
Apr 15
Full

Hourly Weather History & Observations

Time (CDT) Temp. Windchill Dew Point Humidity Pressure Visibility Wind Dir Wind Speed Gust Speed Precip Events Conditions
12:15 AM 30.9 °F 21.2 °F 17.6 °F 58% 30.37 in 10.0 mi NNW 12.7 mph - N/A   Overcast
12:35 AM 30.0 °F 18.7 °F 16.3 °F 57% 30.37 in 10.0 mi NNW 16.1 mph - N/A   Overcast
12:55 AM 30.0 °F 21.1 °F 16.9 °F 58% 30.38 in 10.0 mi NNW 10.4 mph - N/A   Overcast
1:15 AM 29.3 °F 19.6 °F 16.9 °F 60% 30.38 in 10.0 mi NNW 11.5 mph 20.7 mph N/A   Overcast
1:35 AM 29.1 °F 18.9 °F 17.1 °F 61% 30.38 in 10.0 mi NNW 12.7 mph - N/A   Overcast
1:55 AM 28.9 °F 18.2 °F 17.2 °F 62% 30.39 in 10.0 mi NNW 13.8 mph 17.3 mph N/A   Overcast
2:15 AM 28.2 °F 17.7 °F 15.8 °F 60% 30.40 in 10.0 mi NNW 12.7 mph 20.7 mph N/A   Overcast
2:35 AM 27.9 °F 17.3 °F 17.2 °F 64% 30.40 in 10.0 mi NNW 12.7 mph - N/A   Mostly Cloudy
2:55 AM 27.5 °F 16.8 °F 16.7 °F 64% 30.41 in 10.0 mi NNW 12.7 mph - N/A   Overcast
3:15 AM 27.1 °F 16.4 °F 17.1 °F 66% 30.41 in 10.0 mi NNW 12.7 mph 16.1 mph N/A   Overcast
3:35 AM 26.6 °F 14.3 °F 16.2 °F 65% 30.40 in 10.0 mi NNW 16.1 mph - N/A   Mostly Cloudy
3:55 AM 26.4 °F 14.0 °F 16.0 °F 65% 30.40 in 10.0 mi NNW 16.1 mph 21.9 mph N/A   Scattered Clouds
4:15 AM 26.1 °F 15.6 °F 16.3 °F 67% 30.41 in 10.0 mi NNW 11.5 mph - N/A   Clear
4:35 AM 25.7 °F 12.7 °F 16.0 °F 67% 30.41 in 10.0 mi NNW 17.3 mph - N/A   Scattered Clouds
4:55 AM 25.7 °F 14.6 °F 16.5 °F 68% 30.42 in 10.0 mi NNW 12.7 mph - N/A   Scattered Clouds
5:15 AM 25.7 °F 15.1 °F 16.2 °F 67% 30.42 in 10.0 mi NNW 11.5 mph - N/A   Clear
5:35 AM 25.3 °F 13.1 °F 14.7 °F 64% 30.43 in 10.0 mi NNW 15.0 mph - N/A   Scattered Clouds
5:55 AM 24.8 °F 13.4 °F 14.0 °F 64% 30.43 in 10.0 mi NNW 12.7 mph - N/A   Mostly Cloudy
6:15 AM 24.4 °F 13.5 °F 14.0 °F 65% 30.44 in 10.0 mi NNW 11.5 mph - N/A   Mostly Cloudy
6:35 AM 23.9 °F 12.3 °F 13.6 °F 65% 30.45 in 10.0 mi NNW 12.7 mph - N/A   Mostly Cloudy
6:55 AM 23.9 °F 10.8 °F 13.3 °F 64% 30.45 in 10.0 mi NNW 16.1 mph - N/A   Mostly Cloudy
7:15 AM 23.4 °F 12.2 °F 12.4 °F 63% 30.46 in 10.0 mi NNW 11.5 mph - N/A   Scattered Clouds
7:35 AM 23.4 °F 12.2 °F 12.9 °F 64% 30.46 in 10.0 mi NNW 11.5 mph 18.4 mph N/A   Clear
7:55 AM 23.9 °F 12.9 °F 13.3 °F 64% 30.46 in 10.0 mi NNW 11.5 mph 16.1 mph N/A   Clear
8:15 AM 24.4 °F 13.0 °F 13.1 °F 62% 30.47 in 10.0 mi North 12.7 mph 17.3 mph N/A   Clear
8:35 AM 24.8 °F 12.4 °F 12.7 °F 60% 30.47 in 10.0 mi NNW 15.0 mph - N/A   Clear
8:55 AM 25.9 °F 13.8 °F 13.3 °F 59% 30.48 in 10.0 mi North 15.0 mph - N/A   Clear
9:15 AM 26.4 °F 15.5 °F 12.9 °F 57% 30.47 in 10.0 mi North 12.7 mph - N/A   Clear
9:35 AM 26.6 °F 15.7 °F 12.7 °F 56% 30.48 in 10.0 mi North 12.7 mph - N/A   Clear
9:55 AM 27.3 °F 16.6 °F 12.7 °F 54% 30.48 in 10.0 mi North 12.7 mph - N/A   Clear
10:15 AM 27.9 °F 18.4 °F 12.6 °F 53% 30.49 in 10.0 mi NNW 10.4 mph 17.3 mph N/A   Clear
10:35 AM 28.8 °F 18.4 °F 12.4 °F 50% 30.48 in 10.0 mi NNW 12.7 mph 18.4 mph N/A   Clear
10:55 AM 28.9 °F 19.8 °F 11.5 °F 48% 30.48 in 10.0 mi NNW 10.4 mph 18.4 mph N/A   Clear
11:15 AM 29.8 °F 20.9 °F 11.1 °F 46% 30.48 in 10.0 mi NNW 10.4 mph - N/A   Clear
11:35 AM 30.9 °F 22.8 °F 11.7 °F 45% 30.47 in 10.0 mi NNW 9.2 mph 16.1 mph N/A   Clear
11:55 AM 30.9 °F 24.3 °F 10.9 °F 43% 30.47 in 10.0 mi NNW 6.9 mph 17.3 mph N/A   Clear
12:15 PM 31.8 °F 26.2 °F 10.9 °F 42% 30.46 in 10.0 mi NNW 5.8 mph 17.3 mph N/A   Clear
12:35 PM 32.9 °F 24.7 °F 11.3 °F 41% 30.46 in 10.0 mi NNW 10.4 mph 16.1 mph N/A   Clear
12:55 PM 32.2 °F 26.7 °F 10.6 °F 41% 30.46 in 10.0 mi NW 5.8 mph 18.4 mph N/A   Clear
1:15 PM 32.5 °F 25.5 °F 11.1 °F 41% 30.46 in 10.0 mi NNW 8.1 mph - N/A   Clear
1:35 PM 33.6 °F 25.0 °F 11.3 °F 40% 30.44 in 10.0 mi NNW 11.5 mph 17.3 mph N/A   Clear
1:55 PM 34.0 °F 25.5 °F 10.8 °F 38% 30.44 in 10.0 mi NNW 11.5 mph 17.3 mph N/A   Clear
2:15 PM 34.9 °F 27.7 °F 10.2 °F 36% 30.43 in 10.0 mi North 9.2 mph 19.6 mph N/A   Clear
2:35 PM 35.2 °F 27.1 °F 10.2 °F 35% 30.43 in 10.0 mi NW 11.5 mph 16.1 mph N/A   Clear
2:55 PM 35.6 °F 28.0 °F 10.4 °F 35% 30.42 in 10.0 mi NW 10.4 mph 23.0 mph N/A   Clear
3:15 PM 35.6 °F 29.9 °F 10.0 °F 35% 30.41 in 10.0 mi North 6.9 mph 10.4 mph N/A   Clear
3:35 PM 36.3 °F 27.5 °F 9.9 °F 33% 30.40 in 10.0 mi NW 13.8 mph 20.7 mph N/A   Clear
3:55 PM 36.7 °F 27.6 °F 9.9 °F 33% 30.40 in 10.0 mi NNW 15.0 mph - N/A   Clear
4:15 PM 36.5 °F 28.2 °F 9.5 °F 33% 30.40 in 10.0 mi NW 12.7 mph 16.1 mph N/A   Clear
4:35 PM 36.1 °F 27.7 °F 9.1 °F 33% 30.39 in 10.0 mi NW 12.7 mph 17.3 mph N/A   Clear
4:55 PM 36.0 °F 30.3 °F 7.9 °F 31% 30.39 in 10.0 mi NNW 6.9 mph - N/A   Clear
5:15 PM 36.1 °F 29.3 °F 8.1 °F 31% 30.39 in 10.0 mi NNW 9.2 mph - N/A   Clear
5:35 PM 35.6 °F 28.0 °F 6.8 °F 30% 30.38 in 10.0 mi NNW 10.4 mph - N/A   Clear
5:55 PM 35.6 °F 27.5 °F 9.1 °F 33% 30.38 in 10.0 mi NNW 11.5 mph - N/A   Clear
6:15 PM 34.7 °F 28.1 °F 8.6 °F 34% 30.38 in 10.0 mi North 8.1 mph - N/A   Clear
6:35 PM 34.0 °F 27.2 °F 9.0 °F 35% 30.38 in 10.0 mi North 8.1 mph - N/A   Clear
6:55 PM 32.7 °F 27.3 °F 8.8 °F 37% 30.39 in 10.0 mi North 5.8 mph - N/A   Clear
7:15 PM 30.7 °F 24.9 °F 10.2 °F 42% 30.39 in 10.0 mi North 5.8 mph - N/A   Clear
7:35 PM 30.2 °F 25.4 °F 10.0 °F 43% 30.39 in 10.0 mi North 4.6 mph - N/A   Clear
7:55 PM 28.9 °F 22.8 °F 10.9 °F 47% 30.38 in 10.0 mi North 5.8 mph - N/A   Clear
8:15 PM 28.2 °F 24.4 °F 12.0 °F 51% 30.38 in 10.0 mi NNE 3.5 mph - N/A   Clear
8:35 PM 28.4 °F 24.6 °F 12.7 °F 52% 30.39 in 10.0 mi NNE 3.5 mph - N/A   Clear
8:55 PM 28.4 °F - 12.2 °F 51% 30.39 in 10.0 mi Calm Calm - N/A   Clear
9:15 PM 27.9 °F - 12.0 °F 52% 30.38 in 10.0 mi Calm Calm - N/A   Clear
9:35 PM 27.1 °F - 12.0 °F 53% 30.38 in 10.0 mi Calm Calm - N/A   Clear
9:55 PM 26.2 °F - 12.2 °F 55% 30.39 in 10.0 mi Calm Calm - N/A   Clear
10:15 PM 25.0 °F - 12.9 °F 60% 30.39 in 10.0 mi Calm Calm - N/A   Clear
10:35 PM 23.9 °F - 13.8 °F 65% 30.39 in 10.0 mi Calm Calm - N/A   Clear
10:55 PM 24.6 °F - 13.6 °F 63% 30.39 in 10.0 mi Calm Calm - N/A   Clear
11:15 PM 22.6 °F - 14.7 °F 72% 30.39 in 10.0 mi Calm Calm - N/A   Clear
11:35 PM 22.8 °F - 14.2 °F 69% 30.39 in 10.0 mi Calm Calm - N/A   Clear
11:55 PM 22.3 °F - 14.0 °F 71% 30.39 in 10.0 mi Calm Calm - N/A   Clear